GW4533 Weather Reports


time (UTC)temp
C
wind
direction
speed
KPH
gust
KPH
rain 1hr
cm
rain 24hr
cm
rain mn
cm
humidity
%
barometer
mb
20260508135521 12 242 1.6 6.4 0.00 0.00 0.00 64 1014.8
20260508135018 12 2 0.0 12.9 0.00 0.00 0.00 65 1014.9
20260508134514 12 303 8.0 11.3 0.00 0.00 0.00 63 1014.8
20260508134011 12 256 4.8 11.3 0.00 0.00 0.00 63 1014.9
20260508133508 12 5 3.2 9.7 0.00 0.00 0.00 64 1014.8
20260508133005 11 12 6.4 9.7 0.00 0.00 0.00 64 1014.7
20260508132503 11 300 1.6 9.7 0.00 0.00 0.00 66 1014.9
20260508131959 11 294 3.2 4.8 0.00 0.00 0.00 67 1014.8
20260508131455 11 2 4.8 6.4 0.00 0.00 0.00 66 1014.5
20260508130952 11 214 3.2 4.8 0.00 0.00 0.00 67 1014.8
20260508130449 11 317 6.4 14.5 0.00 0.00 0.00 66 1014.8
20260508125944 11 212 1.6 6.4 0.00 0.00 0.00 66 1014.8
20260508125441 11 276 3.2 9.7 0.00 0.00 0.00 65 1014.8
20260508124939 11 143 6.4 9.7 0.00 0.00 0.00 66 1014.6
20260508124436 11 2 1.6 4.8 0.00 0.00 0.00 66 1014.7
20260508123934 11 223 3.2 6.4 0.00 0.00 0.00 66 1014.7
20260508123432 10 265 1.6 9.7 0.00 0.00 0.00 66 1014.8
20260508122928 10 333 3.2 4.8 0.00 0.00 0.00 66 1014.6
20260508122425 10 240 3.2 4.8 0.00 0.00 0.00 67 1014.6
20260508121923 10 237 3.2 4.8 0.00 0.00 0.00 67 1014.5
20260508121421 10 208 3.2 4.8 0.00 0.00 0.00 68 1014.7
20260508120918 10 200 0.0 4.8 0.00 0.00 0.00 68 1014.7
20260508120416 10 317 0.0 6.4 0.00 0.00 0.00 69 1014.4
20260508115913 10 185 3.2 3.2 0.00 0.00 0.00 69 1014.6
20260508115411 10 280 3.2 4.8 0.00 0.00 0.00 68 1014.3
20260508114907 9 302 3.2 9.7 0.00 0.00 0.00 68 1014.3
20260508114404 9 136 0.0 4.8 0.00 0.00 0.00 69 1014.2
20260508113900 9 179 1.6 4.8 0.00 0.00 0.00 69 1014.3
20260508113359 8 213 0.0 4.8 0.00 0.00 0.00 71 1014.3
20260508112855 8 148 3.2 3.2 0.00 0.00 0.00 71 1014.4
20260508112352 8 247 3.2 4.8 0.00 0.00 0.00 72 1014.5
20260508111848 8 302 1.6 3.2 0.00 0.00 0.00 74 1014.3
20260508111346 7 234 3.2 6.4 0.00 0.00 0.00 74 1014.5
20260508110843 7 286 1.6 4.8 0.00 0.00 0.00 75 1014.4
20260508110341 7 248 6.4 6.4 0.00 0.00 0.00 75 1014.4
20260508105840 7 229 1.6 4.8 0.00 0.00 0.00 77 1014.2
20260508105337 7 278 1.6 3.2 0.00 0.00 0.00 78 1014.2
20260508104834 7 216 1.6 4.8 0.00 0.00 0.00 78 1014.2
20260508104331 7 264 1.6 3.2 0.00 0.00 0.00 78 1014.2
20260508103828 7 237 1.6 3.2 0.00 0.00 0.00 79 1014.0
20260508103325 7 228 0.0 3.2 0.00 0.00 0.00 79 1014.0
20260508102823 7 235 0.0 1.6 0.00 0.00 0.00 79 1013.9
20260508102321 7 327 3.2 4.8 0.00 0.00 0.00 79 1013.8
20260508101817 7 241 0.0 3.2 0.00 0.00 0.00 78 1013.8
20260508101315 7 245 3.2 3.2 0.00 0.00 0.00 78 1013.9
20260508100812 7 196 1.6 3.2 0.00 0.00 0.00 78 1014.1
20260508100311 7 229 1.6 3.2 0.00 0.00 0.00 77 1014.0
20260508095806 7 239 1.6 1.6 0.00 0.00 0.00 78 1014.0
20260508095306 7 274 1.6 3.2 0.00 0.00 0.00 78 1014.0
20260508094800 7 250 0.0 3.2 0.00 0.00 0.00 78 1014.1
20260508094258 7 246 1.6 3.2 0.00 0.00 0.00 79 1014.1
20260508093755 7 238 0.0 1.6 0.00 0.00 0.00 80 1014.0
20260508093252 7 273 0.0 3.2 0.00 0.00 0.00 80 1014.1
20260508092749 7 277 3.2 3.2 0.00 0.00 0.00 83 1014.1
20260508092247 6 231 1.6 1.6 0.00 0.00 0.00 84 1014.2
20260508091745 6 219 0.0 4.8 0.00 0.00 0.00 86 1014.2
20260508091242 6 229 1.6 1.6 0.00 0.00 0.00 89 1014.4
20260508090739 6 190 0.0 0.0 0.00 0.00 0.00 90 1014.3
20260508090237 6 275 0.0 0.0 0.00 0.00 0.00 89 1014.5
20260508085733 6 284 0.0 0.0 0.00 0.00 0.00 89 1014.4
20260508085230 6 258 0.0 0.0 0.00 0.00 0.00 88 1014.4
20260508084726 6 245 0.0 1.6 0.00 0.00 0.00 87 1014.4
20260508084224 6 239 0.0 0.0 0.00 0.00 0.00 88 1014.5
20260508083721 7 348 0.0 0.0 0.00 0.00 0.00 87 1014.7
20260508083218 7 347 0.0 0.0 0.00 0.00 0.00 87 1014.7
20260508082713 6 246 0.0 0.0 0.00 0.00 0.00 85 1014.5
20260508082211 7 246 0.0 0.0 0.00 0.00 0.00 85 1014.4
20260508081708 7 272 0.0 0.0 0.00 0.00 0.00 83 1014.4
20260508081204 7 272 0.0 0.0 0.00 0.00 0.00 83 1014.6
20260508080702 7 328 0.0 1.6 0.00 0.00 0.00 82 1014.7
20260508080200 7 219 0.0 0.0 0.00 0.00 0.00 82 1014.5
20260508075656 7 219 0.0 0.0 0.00 0.00 0.00 82 1014.6
20260508075153 7 219 0.0 0.0 0.00 0.00 0.00 81 1014.5
20260508074651 7 219 0.0 0.0 0.00 0.00 0.00 81 1014.5
20260508074148 7 224 0.0 3.2 0.00 0.00 0.00 81 1014.6
20260508073645 7 317 0.0 1.6 0.00 0.00 0.00 81 1014.8
20260508073143 7 244 0.0 6.4 0.00 0.00 0.00 81 1014.6
20260508072638 7 237 4.8 4.8 0.00 0.00 0.00 81 1014.8
20260508072135 7 316 6.4 6.4 0.00 0.00 0.00 79 1014.6
20260508071633 7 233 1.6 1.6 0.00 0.00 0.00 79 1014.8
20260508071131 7 229 4.8 6.4 0.00 0.00 0.00 78 1014.9
20260508070628 7 215 1.6 3.2 0.00 0.00 0.00 79 1014.9
20260508070127 7 275 1.6 4.8 0.00 0.00 0.00 79 1014.9
20260508065624 7 289 0.0 4.8 0.00 0.00 0.00 79 1015.1
20260508065121 7 297 4.8 6.4 0.00 0.00 0.00 80 1015.1
20260508064619 7 224 4.8 4.8 0.00 0.00 0.00 80 1015.1
20260508064117 7 301 1.6 3.2 0.00 0.00 0.00 79 1015.2
20260508063614 7 241 1.6 1.6 0.00 0.00 0.00 79 1015.2
20260508063112 7 179 0.0 3.2 0.00 0.00 0.00 78 1015.2
20260508062609 7 273 3.2 4.8 0.00 0.00 0.00 77 1015.2
20260508062106 7 290 3.2 4.8 0.00 0.00 0.00 77 1015.1
20260508061603 7 232 3.2 4.8 0.00 0.00 0.00 77 1015.4
20260508061100 8 293 4.8 6.4 0.00 0.00 0.00 76 1015.4
20260508060557 8 252 0.0 3.2 0.00 0.00 0.00 76 1015.5
20260508060054 8 273 0.0 3.2 0.00 0.00 0.00 76 1015.7
20260508055550 8 273 1.6 4.8 0.00 0.00 0.00 74 1015.6
20260508055047 8 230 1.6 4.8 0.00 0.00 0.00 73 1015.6
20260508054543 8 237 3.2 6.4 0.00 0.00 0.00 73 1015.7
20260508054041 8 291 0.0 1.6 0.00 0.00 0.00 71 1015.7
20260508053537 8 287 0.0 0.0 0.00 0.00 0.00 70 1015.3
20260508053036 8 210 0.0 1.6 0.00 0.00 0.00 69 1015.3
20260508052533 8 148 0.0 0.0 0.00 0.00 0.00 69 1015.2
20260508052029 8 148 0.0 0.0 0.00 0.00 0.00 70 1015.3
20260508051526 8 148 0.0 0.0 0.00 0.00 0.00 68 1015.3
20260508051021 8 148 0.0 1.6 0.00 0.00 0.00 68 1014.9
20260508050518 8 148 0.0 1.6 0.00 0.00 0.00 69 1015.3
20260508050015 7 147 0.0 0.0 0.00 0.00 0.00 70 1015.2
20260508045511 8 147 0.0 0.0 0.00 0.00 0.00 70 1015.1
20260508045009 8 147 0.0 0.0 0.00 0.00 0.00 68 1015.3
20260508044506 7 201 0.0 0.0 0.00 0.00 0.00 70 1015.1
20260508044001 7 201 0.0 0.0 0.00 0.00 0.00 69 1015.3
20260508043459 7 201 0.0 0.0 0.00 0.00 0.00 69 1015.2
20260508042955 7 290 0.0 0.0 0.00 0.00 0.00 70 1015.1
20260508042453 7 290 0.0 0.0 0.00 0.00 0.00 71 1015.1
20260508041949 7 290 0.0 0.0 0.00 0.00 0.00 70 1015.1
20260508041446 7 290 0.0 0.0 0.00 0.00 0.00 69 1015.1
20260508040943 7 290 0.0 0.0 0.00 0.00 0.00 70 1015.4
20260508040440 7 290 0.0 0.0 0.00 0.00 0.00 70 1015.3
20260508035938 7 290 0.0 0.0 0.00 0.00 0.00 71 1015.3
20260508035434 7 290 0.0 0.0 0.00 0.00 0.00 69 1015.2
20260508034931 7 290 0.0 0.0 0.00 0.00 0.00 67 1015.3
20260508034429 7 290 0.0 0.0 0.00 0.00 0.00 66 1015.4
20260508033925 7 290 0.0 0.0 0.00 0.00 0.00 65 1015.2
20260508033424 8 290 0.0 0.0 0.00 0.00 0.00 65 1015.6
20260508032920 8 290 0.0 0.0 0.00 0.00 0.00 64 1015.4
20260508032418 -17 0.0 0.0 0.00 0.00 0.00 1015.2
20260508031914 -17 0.0 0.0 0.00 0.00 0.00 1015.5
20260508031412 8 288 0.0 0.0 0.00 0.00 0.00 62 1015.4
20260508030907 -17 0.0 0.0 0.00 0.00 0.00 1015.5
20260508030405 -17 0.0 0.0 0.00 0.00 0.00 1015.6
20260508025902 9 288 0.0 0.0 0.00 0.00 0.00 59 1015.7
20260508025353 9 288 0.0 0.0 0.00 0.00 0.00 59 1015.5
20260508024850 9 288 0.0 0.0 0.00 0.00 0.00 60 1015.7
20260508024347 9 288 0.0 0.0 0.00 0.00 0.00 59 1015.7
20260508023843 9 288 0.0 0.0 0.00 0.00 0.00 58 1015.7
20260508023340 9 288 0.0 0.0 0.00 0.00 0.00 57 1015.6
20260508022836 9 285 0.0 0.0 0.00 0.00 0.00 57 1015.5
20260508022332 10 227 0.0 0.0 0.00 0.00 0.00 57 1015.6
20260508021829 10 264 0.0 1.6 0.00 0.00 0.00 56 1015.8
20260508021325 10 237 0.0 1.6 0.00 0.00 0.00 57 1015.6
20260508020821 10 328 0.0 1.6 0.00 0.00 0.00 58 1015.5
20260508020319 10 349 0.0 1.6 0.00 0.00 0.00 56 1015.4
20260508015816 10 322 1.6 4.8 0.00 0.00 0.00 53 1015.2
20260508015309 10 302 1.6 1.6 0.00 0.00 0.00 55 1015.7
20260508014805 10 306 1.6 4.8 0.00 0.00 0.00 54 1015.5
20260508014302 10 169 1.6 3.2 0.00 0.00 0.00 56 1015.5
20260508013757 10 308 1.6 1.6 0.00 0.00 0.00 56 1015.4
20260508013254 10 284 0.0 0.0 0.00 0.00 0.00 55 1015.3
20260508012752 10 258 0.0 1.6 0.00 0.00 0.00 56 1015.1
20260508012249 9 243 0.0 0.0 0.00 0.00 0.00 56 1015.2
20260508011747 9 301 0.0 0.0 0.00 0.00 0.00 57 1014.9
20260508011244 8 301 0.0 0.0 0.00 0.00 0.00 58 1014.9
20260508010741 8 297 0.0 0.0 0.00 0.00 0.00 59 1015.1
20260508010239 8 297 0.0 0.0 0.00 0.00 0.00 58 1014.9
20260508005736 8 297 0.0 0.0 0.00 0.00 0.00 57 1014.7
20260508005232 8 297 0.0 0.0 0.00 0.00 0.00 56 1014.7
20260508004728 8 297 0.0 0.0 0.00 0.00 0.00 57 1014.7
20260508004224 8 297 0.0 0.0 0.00 0.00 0.00 55 1014.6
20260508003721 8 297 0.0 0.0 0.00 0.00 0.00 55 1014.6
20260508003219 9 297 0.0 0.0 0.00 0.00 0.00 55 1014.6
20260508002715 9 297 0.0 0.0 0.00 0.00 0.00 55 1014.4
20260508002212 9 297 0.0 0.0 0.00 0.00 0.00 53 1014.5
20260508001708 10 297 0.0 0.0 0.00 0.00 0.00 51 1014.5
20260508001204 10 297 0.0 0.0 0.00 0.00 0.00 50 1014.5
20260508000700 10 279 0.0 0.0 0.00 0.00 0.00 50 1014.5
20260508000157 10 292 0.0 0.0 0.00 0.00 0.00 49 1014.5
20260507235654 10 74 1.6 4.8 0.00 0.00 0.00 48 1014.3
20260507235151 11 338 0.0 1.6 0.00 0.00 0.00 48 1014.2
20260507234648 11 311 1.6 3.2 0.00 0.00 0.00 46 1014.2
20260507234144 11 244 0.0 0.0 0.00 0.00 0.00 47 1014.4
20260507233641 11 340 0.0 3.2 0.00 0.00 0.00 47 1014.3
20260507233140 11 259 1.6 3.2 0.00 0.00 0.00 47 1014.3
20260507232636 11 336 1.6 4.8 0.00 0.00 0.00 45 1014.4
20260507232133 11 240 1.6 4.8 0.00 0.00 0.00 44 1014.2
20260507231629 12 152 1.6 4.8 0.00 0.00 0.00 44 1014.4
20260507231127 12 284 1.6 4.8 0.00 0.00 0.00 43 1014.6
20260507230623 12 8 1.6 4.8 0.00 0.00 0.00 42 1014.4
20260507230120 12 281 3.2 9.7 0.00 0.00 0.00 43 1014.3
20260507225615 12 341 1.6 1.6 0.00 0.00 0.00 44 1014.4
20260507225112 12 274 1.6 3.2 0.00 0.00 0.00 44 1014.6
20260507224607 12 276 1.6 4.8 0.00 0.00 0.00 44 1014.4
20260507224104 12 309 4.8 9.7 0.00 0.00 0.00 42 1014.6
20260507223601 12 295 1.6 3.2 0.00 0.00 0.00 43 1014.6
20260507223057 12 226 3.2 9.7 0.00 0.00 0.00 42 1014.4
20260507222555 12 327 1.6 1.6 0.00 0.00 0.00 41 1014.7
20260507222051 12 301 1.6 4.8 0.00 0.00 0.00 42 1014.8
20260507221547 12 277 3.2 11.3 0.00 0.00 0.00 41 1014.4
20260507221044 12 9 3.2 9.7 0.00 0.00 0.00 43 1014.5
20260507220541 12 304 3.2 4.8 0.00 0.00 0.00 44 1014.6
20260507220039 12 298 0.0 4.8 0.00 0.00 0.00 45 1014.3
20260507215534 13 280 3.2 3.2 0.00 0.00 0.00 41 1014.5
20260507215033 13 356 1.6 9.7 0.00 0.00 0.00 41 1014.4
20260507214530 13 144 0.0 1.6 0.00 0.00 0.00 41 1014.2
20260507214026 13 206 0.0 4.8 0.00 0.00 0.00 41 1014.5
20260507213522 13 317 3.2 9.7 0.00 0.00 0.00 39 1014.1
20260507213019 13 346 6.4 11.3 0.00 0.00 0.00 40 1014.2
20260507212515 12 321 1.6 3.2 0.00 0.00 0.00 42 1014.2
20260507212012 12 310 8.0 16.1 0.00 0.00 0.00 41 1014.3
20260507211509 12 297 3.2 9.7 0.00 0.00 0.00 41 1014.2
20260507211005 12 330 4.8 6.4 0.00 0.00 0.00 40 1014.5
20260507210502 13 327 3.2 6.4 0.00 0.00 0.00 41 1014.2
20260507205959 13 287 3.2 9.7 0.00 0.00 0.00 42 1014.0
20260507205455 13 220 3.2 3.2 0.00 0.00 0.00 42 1014.1
20260507204951 12 251 3.2 9.7 0.00 0.00 0.00 45 1014.1
20260507204442 12 310 4.8 12.9 0.00 0.00 0.00 43 1014.1
20260507203940 13 205 1.6 6.4 0.00 0.00 0.00 43 1014.1
20260507203438 14 150 3.2 6.4 0.00 0.00 0.00 42 1014.1
20260507202934 13 281 1.6 1.6 0.00 0.00 0.00 45 1014.1
20260507202431 13 215 3.2 9.7 0.00 0.00 0.00 47 1014.1
20260507201926 13 256 8.0 12.9 0.00 0.00 0.00 43 1014.2
20260507201416 13 206 1.6 4.8 0.00 0.00 0.00 46 1014.1
20260507200913 13 321 0.0 4.8 0.00 0.00 0.00 46 1014.0
20260507200409 12 326 3.2 4.8 0.00 0.00 0.00 47 1014.2
20260507195905 13 14 4.8 9.7 0.00 0.00 0.00 44 1014.3
20260507195403 12 358 3.2 4.8 0.00 0.00 0.00 46 1014.4
20260507194859 12 3 3.2 4.8 0.00 0.00 0.00 50 1014.4
20260507194356 13 238 1.6 11.3 0.00 0.00 0.00 47 1014.4
20260507193852 13 263 1.6 6.4 0.00 0.00 0.00 47 1014.3
20260507193349 12 339 4.8 6.4 0.00 0.00 0.00 49 1014.6
20260507192845 12 260 3.2 4.8 0.00 0.00 0.00 46 1014.3
20260507192342 12 310 9.7 11.3 0.00 0.00 0.00 47 1014.4
20260507191838 11 219 3.2 6.4 0.00 0.00 0.00 51 1014.6
20260507191334 12 322 3.2 11.3 0.00 0.00 0.00 49 1014.7
20260507190831 12 172 1.6 11.3 0.00 0.00 0.00 51 1014.5
20260507190330 12 274 1.6 9.7 0.00 0.00 0.00 51 1014.5
20260507185829 13 234 6.4 11.3 0.00 0.00 0.00 49 1014.5
20260507185325 12 347 4.8 6.4 0.00 0.00 0.00 53 1014.5
20260507184822 13 20 4.8 6.4 0.00 0.00 0.00 51 1014.5
20260507184320 12 222 1.6 4.8 0.00 0.00 0.00 52 1014.6
20260507183816 12 286 3.2 11.3 0.00 0.00 0.00 50 1014.7
20260507183314 13 278 1.6 6.4 0.00 0.00 0.00 46 1014.7
20260507182811 14 348 1.6 6.4 0.00 0.00 0.00 46 1014.6
20260507182307 13 319 3.2 6.4 0.00 0.00 0.00 46 1014.5
20260507181803 13 190 1.6 11.3 0.00 0.00 0.00 52 1014.5
20260507181259 13 289 3.2 6.4 0.00 0.00 0.00 49 1014.6
20260507180756 13 148 3.2 6.4 0.00 0.00 0.00 49 1014.5
20260507180253 13 326 1.6 4.8 0.00 0.00 0.00 51 1014.7
20260507175748 13 341 0.0 6.4 0.00 0.00 0.00 50 1014.5
20260507175245 12 251 1.6 6.4 0.00 0.00 0.00 51 1014.6
20260507174743 13 247 6.4 11.3 0.00 0.00 0.00 49 1014.7
20260507174241 12 340 8.0 11.3 0.00 0.00 0.00 47 1014.9
20260507173738 13 314 8.0 14.5 0.00 0.00 0.00 46 1014.7
20260507173229 12 215 3.2 9.7 0.00 0.00 0.00 47 1014.7
20260507172725 12 267 3.2 9.7 0.00 0.00 0.00 47 1014.8
20260507172222 13 303 4.8 4.8 0.00 0.00 0.00 47 1014.9
20260507171723 13 350 8.0 11.3 0.00 0.00 0.00 46 1014.9
20260507171220 13 350 8.0 11.3 0.00 0.00 0.00 46 1014.7
20260507170717 13 86 1.6 4.8 0.00 0.00 0.00 48 1015.1
20260507170214 13 158 3.2 9.7 0.00 0.00 0.00 52 1014.9
20260507165709 13 311 1.6 3.2 0.00 0.00 0.00 51 1015.1
20260507165206 12 285 3.2 4.8 0.00 0.00 0.00 49 1014.8
20260507164702 12 200 1.6 4.8 0.00 0.00 0.00 48 1015.2
20260507164159 12 297 3.2 12.9 0.00 0.00 0.00 50 1014.9
20260507163655 12 221 1.6 4.8 0.00 0.00 0.00 51 1015.1
20260507163148 12 294 3.2 6.4 0.00 0.00 0.00 51 1014.9
20260507162644 12 340 1.6 6.4 0.00 0.00 0.00 46 1015.2
20260507162140 11 277 0.0 4.8 0.00 0.00 0.00 50 1015.1
20260507161636 12 223 6.4 9.7 0.00 0.00 0.00 51 1014.9
20260507161133 12 8 6.4 6.4 0.00 0.00 0.00 48 1014.9
20260507160630 12 322 0.0 4.8 0.00 0.00 0.00 49 1014.8
20260507160127 12 29 1.6 4.8 0.00 0.00 0.00 51 1015.1
20260507155622 12 231 1.6 3.2 0.00 0.00 0.00 51 1014.9
20260507155119 11 292 3.2 3.2 0.00 0.00 0.00 52 1015.2
20260507154615 12 236 1.6 3.2 0.00 0.00 0.00 52 1015.3
20260507154113 11 251 3.2 6.4 0.00 0.00 0.00 51 1015.1
20260507153609 11 254 3.2 4.8 0.00 0.00 0.00 54 1014.9
20260507153105 12 331 3.2 4.8 0.00 0.00 0.00 51 1015.1
20260507152601 11 236 1.6 3.2 0.00 0.00 0.00 55 1014.9
20260507152057 11 252 3.2 9.7 0.00 0.00 0.00 48 1014.9
20260507151554 12 299 1.6 9.7 0.00 0.00 0.00 47 1014.9
20260507151051 12 268 3.2 4.8 0.00 0.00 0.00 49 1014.9
20260507150548 12 46 3.2 4.8 0.00 0.00 0.00 56 1014.9
20260507150045 12 329 1.6 3.2 0.00 0.00 0.00 49 1014.9
20260507145540 12 26 1.6 4.8 0.00 0.00 0.00 55 1014.9
20260507145038 11 271 0.0 4.8 0.00 0.00 0.00 55 1015.3
20260507144534 11 203 1.6 1.6 0.00 0.00 0.00 54 1015.2
20260507144032 11 250 1.6 9.7 0.00 0.00 0.00 56 1014.9
20260507143529 11 242 4.8 6.4 0.00 0.00 0.00 58 1015.3
20260507143027 10 358 3.2 6.4 0.00 0.00 0.00 57 1014.9
20260507142527 10 284 0.0 3.2 0.00 0.00 0.00 63 1015.3
20260507142024 10 112 1.6 4.8 0.00 0.00 0.00 58 1015.1
20260507141520 10 237 0.0 1.6 0.00 0.00 0.00 62 1014.9
20260507141017 10 284 1.6 3.2 0.00 0.00 0.00 63 1015.2
20260507140514 10 247 3.2 6.4 0.00 0.00 0.00 61 1015.2
20260507140012 10 308 1.6 3.2 0.00 0.00 0.00 61 1015.1